QFA163 YSSY-NZWN

Flight info

Callsign QFA163
Flight time N/A
Altitude 39000
Route CAWLY M636 TANEN DCT SIMZI
Aircraft A21N/M-SDE2E3FGHIRWXY/LB1

Departure

Time 2026-05-05 12:33
Airport Sydney Kingsford Smith International Airport (YSSY)

Arrival

Time N/A
Airport Wellington International Airport (NZWN)
Time Latitude Longitude Altitude Speed Heading
2026-05-05 12:27 -33.93047 151.16760 24 ft 0 kts 257°
2026-05-05 12:30 -33.93045 151.16771 26 ft 3 kts 257°
2026-05-05 12:31 -33.93041 151.16793 26 ft 3 kts 257°
2026-05-05 12:31 -33.93036 151.16814 27 ft 3 kts 257°
2026-05-05 12:31 -33.93037 151.16836 27 ft 3 kts 308°
2026-05-05 12:31 -33.93044 151.16844 26 ft 1 kts 348°
2026-05-05 12:32 -33.93035 151.16844 27 ft 1 kts 13°
2026-05-05 12:32 -33.92980 151.16970 23 ft 27 kts 72°
2026-05-05 12:32 -33.92985 151.17164 25 ft 18 kts 138°
2026-05-05 12:32 -33.93108 151.17204 24 ft 34 kts 168°
2026-05-05 12:33 -33.93670 151.17344 19 ft 135 kts 169°
2026-05-05 12:33 -33.94801 151.17731 389 ft 193 kts 154°
2026-05-05 12:33 -33.95841 151.18949 1268 ft 222 kts 131°
2026-05-05 12:33 -33.96815 151.20531 2327 ft 250 kts 127°
2026-05-05 12:34 -33.97839 151.22331 3506 ft 265 kts 124°
2026-05-05 12:34 -33.98813 151.24190 5247 ft 259 kts 122°
2026-05-05 12:34 -33.99737 151.26051 6785 ft 265 kts 122°
2026-05-05 12:34 -34.00684 151.28020 8099 ft 275 kts 121°
2026-05-05 12:35 -34.01649 151.30061 9485 ft 283 kts 120°
2026-05-05 12:35 -34.02626 151.32139 10757 ft 296 kts 120°
2026-05-05 12:35 -34.03697 151.34413 11447 ft 329 kts 120°
2026-05-05 12:35 -34.04903 151.36961 11944 ft 365 kts 120°
2026-05-05 12:36 -34.06201 151.39697 12599 ft 390 kts 121°
2026-05-05 12:36 -34.07574 151.42590 13632 ft 401 kts 121°
2026-05-05 12:36 -34.08980 151.45555 14665 ft 410 kts 121°
2026-05-05 12:36 -34.10414 151.48581 15620 ft 419 kts 120°
2026-05-05 12:37 -34.11863 151.51639 16537 ft 427 kts 120°
2026-05-05 12:37 -34.13340 151.54761 17427 ft 435 kts 120°
2026-05-05 12:37 -34.14857 151.57969 18291 ft 442 kts 120°
2026-05-05 12:37 -34.16398 151.61231 19062 ft 449 kts 120°
2026-05-05 12:38 -34.17960 151.64541 19789 ft 455 kts 120°
2026-05-05 12:38 -34.19518 151.67846 20490 ft 462 kts 120°
2026-05-05 12:38 -34.21138 151.71284 21172 ft 467 kts 120°
2026-05-05 12:38 -34.22737 151.74683 21842 ft 473 kts 120°
2026-05-05 12:39 -34.24378 151.78173 22481 ft 478 kts 120°
2026-05-05 12:39 -34.26015 151.81659 23079 ft 483 kts 120°
2026-05-05 12:39 -34.27686 151.85220 23599 ft 489 kts 120°
2026-05-05 12:39 -34.29373 151.88820 24033 ft 493 kts 120°
2026-05-05 12:40 -34.31074 151.92453 24427 ft 498 kts 120°
2026-05-05 12:40 -34.32758 151.96044 24635 ft 506 kts 120°
2026-05-05 12:40 -34.34523 151.99729 24821 ft 515 kts 121°
2026-05-05 12:40 -34.36355 152.03501 25184 ft 518 kts 121°
2026-05-05 12:41 -34.38179 152.07233 25666 ft 519 kts 121°
2026-05-05 12:41 -34.40027 152.11013 26184 ft 520 kts 121°
2026-05-05 12:41 -34.41866 152.14783 26698 ft 520 kts 121°
2026-05-05 12:41 -34.43709 152.18572 27219 ft 521 kts 121°
2026-05-05 12:42 -34.45549 152.22364 27727 ft 521 kts 121°
2026-05-05 12:42 -34.47364 152.26113 28219 ft 521 kts 121°
2026-05-05 12:42 -34.49201 152.29913 28707 ft 522 kts 121°
2026-05-05 12:42 -34.51038 152.33720 29195 ft 522 kts 121°
2026-05-05 12:43 -34.52857 152.37492 29708 ft 522 kts 121°
2026-05-05 12:43 -34.54701 152.41320 30243 ft 522 kts 121°
2026-05-05 12:43 -34.56533 152.45127 30682 ft 523 kts 121°
2026-05-05 12:43 -34.58371 152.48951 31086 ft 524 kts 121°
2026-05-05 12:44 -34.60190 152.52740 31473 ft 525 kts 121°
2026-05-05 12:44 -34.62034 152.56583 31810 ft 527 kts 120°
2026-05-05 12:44 -34.63890 152.60456 32172 ft 529 kts 120°
2026-05-05 12:44 -34.65745 152.64333 32578 ft 529 kts 120°
2026-05-05 12:45 -34.67594 152.68201 32987 ft 530 kts 120°
2026-05-05 12:45 -34.69423 152.72030 33371 ft 530 kts 120°
2026-05-05 12:45 -34.71287 152.75937 33750 ft 531 kts 120°
2026-05-05 12:45 -34.73144 152.79835 34124 ft 531 kts 120°
2026-05-05 12:46 -34.74974 152.83680 34436 ft 532 kts 120°
2026-05-05 12:46 -34.76831 152.87586 34733 ft 532 kts 120°
2026-05-05 12:46 -34.78691 152.91503 35115 ft 531 kts 120°
2026-05-05 12:46 -34.80521 152.95362 35495 ft 529 kts 120°
2026-05-05 12:47 -34.82366 152.99255 35818 ft 529 kts 120°
2026-05-05 12:47 -34.84206 153.03143 36119 ft 529 kts 120°
2026-05-05 12:47 -34.86048 153.07038 36416 ft 529 kts 120°
2026-05-05 12:47 -34.87861 153.10877 36722 ft 529 kts 120°
2026-05-05 12:48 -34.89694 153.14763 37004 ft 529 kts 120°
2026-05-05 12:48 -34.91534 153.18668 37264 ft 530 kts 120°
2026-05-05 12:48 -34.93354 153.22536 37552 ft 529 kts 120°
2026-05-05 12:48 -34.95192 153.26444 37848 ft 529 kts 120°
2026-05-05 12:49 -34.97021 153.30339 38141 ft 529 kts 120°
2026-05-05 12:49 -34.98849 153.34237 38431 ft 528 kts 120°
2026-05-05 12:49 -35.00655 153.38092 38705 ft 528 kts 120°
2026-05-05 12:49 -35.02484 153.41999 38960 ft 528 kts 120°
2026-05-05 12:50 -35.04309 153.45903 39172 ft 527 kts 120°
2026-05-05 12:50 -35.06122 153.49786 39194 ft 525 kts 120°
2026-05-05 12:50 -35.09726 153.57516 39181 ft 527 kts 120°
2026-05-05 12:51 -35.13356 153.65320 39181 ft 527 kts 120°
2026-05-05 12:51 -35.16978 153.73126 39181 ft 527 kts 120°
2026-05-05 12:52 -35.20578 153.80901 39178 ft 528 kts 120°
2026-05-05 12:52 -35.24185 153.88708 39189 ft 528 kts 120°
2026-05-05 12:53 -35.27789 153.96528 39178 ft 526 kts 120°
2026-05-05 12:53 -35.31384 154.04346 39176 ft 526 kts 120°
2026-05-05 12:54 -35.36152 154.14741 39170 ft 527 kts 120°
2026-05-05 12:55 -35.39745 154.22596 39171 ft 527 kts 120°
2026-05-05 12:55 -35.43337 154.30467 39170 ft 527 kts 120°
2026-05-05 12:56 -35.46893 154.38277 39163 ft 527 kts 120°
2026-05-05 12:56 -35.50482 154.46177 39170 ft 528 kts 120°
2026-05-05 12:57 -35.54034 154.54017 39170 ft 528 kts 120°
2026-05-05 12:57 -35.57613 154.61931 39165 ft 528 kts 120°
2026-05-05 12:58 -35.61149 154.69813 39162 ft 528 kts 118°
2026-05-05 12:58 -35.64506 154.77903 39165 ft 529 kts 116°
2026-05-05 12:59 -35.67738 154.85973 39165 ft 529 kts 116°
2026-05-05 12:59 -35.71003 154.94114 39162 ft 529 kts 116°
2026-05-05 13:00 -35.75891 155.06242 39159 ft 529 kts 116°
2026-05-05 13:01 -35.82436 155.22511 39157 ft 529 kts 116°
2026-05-05 13:01 -35.85673 155.30592 39157 ft 529 kts 116°
2026-05-05 13:02 -35.88930 155.38742 39154 ft 529 kts 116°
2026-05-05 13:02 -35.92160 155.46846 39154 ft 529 kts 116°
2026-05-05 13:03 -35.95404 155.55006 39151 ft 529 kts 116°
2026-05-05 13:03 -35.98643 155.63174 39141 ft 529 kts 116°
2026-05-05 13:04 -36.01872 155.71336 39150 ft 529 kts 116°
2026-05-05 13:04 -36.05082 155.79473 39142 ft 529 kts 116°
2026-05-05 13:05 -36.08309 155.87671 39144 ft 529 kts 116°
2026-05-05 13:05 -36.11526 155.95866 39141 ft 529 kts 116°
2026-05-05 13:06 -36.14721 156.04026 39139 ft 529 kts 116°
2026-05-05 13:06 -36.17928 156.12237 39149 ft 529 kts 116°
2026-05-05 13:07 -36.21109 156.20400 39136 ft 528 kts 116°
2026-05-05 13:07 -36.24291 156.28591 39131 ft 527 kts 116°
2026-05-05 13:08 -36.27453 156.36748 39138 ft 527 kts 116°
2026-05-05 13:08 -36.30621 156.44944 39135 ft 527 kts 115°
2026-05-05 13:09 -36.33789 156.53159 39126 ft 527 kts 115°
2026-05-05 13:09 -36.36926 156.61317 39124 ft 526 kts 115°
2026-05-05 13:10 -36.40079 156.69535 39127 ft 526 kts 115°
2026-05-05 13:10 -36.43199 156.77690 39124 ft 526 kts 115°
2026-05-05 13:11 -36.46330 156.85895 39120 ft 526 kts 115°
2026-05-05 13:11 -36.49468 156.94138 39119 ft 525 kts 115°
2026-05-05 13:12 -36.52577 157.02329 39122 ft 525 kts 115°
2026-05-05 13:12 -36.55699 157.10574 39121 ft 525 kts 115°
2026-05-05 13:13 -36.58789 157.18755 39116 ft 525 kts 115°
2026-05-05 13:13 -36.61889 157.26984 39116 ft 525 kts 115°
2026-05-05 13:14 -36.64970 157.35187 39113 ft 524 kts 115°
2026-05-05 13:14 -36.68059 157.43431 39111 ft 524 kts 115°
2026-05-05 13:15 -36.71126 157.51637 39115 ft 524 kts 115°
2026-05-05 13:15 -36.74200 157.59886 39111 ft 523 kts 115°
2026-05-05 13:16 -36.77265 157.68131 39108 ft 523 kts 114°
2026-05-05 13:16 -36.80306 157.76334 39108 ft 523 kts 114°
2026-05-05 13:17 -36.83363 157.84600 39105 ft 523 kts 114°
2026-05-05 13:17 -36.86392 157.92813 39104 ft 522 kts 114°
2026-05-05 13:18 -36.89430 158.01074 39105 ft 521 kts 114°
2026-05-05 13:18 -36.92438 158.09274 39100 ft 521 kts 114°
2026-05-05 13:19 -36.95457 158.17526 39102 ft 521 kts 114°
2026-05-05 13:19 -36.98471 158.25787 39092 ft 520 kts 114°
2026-05-05 13:20 -37.01451 158.33975 39097 ft 520 kts 114°
2026-05-05 13:20 -37.04449 158.42238 39097 ft 519 kts 114°
2026-05-05 13:21 -37.07433 158.50484 39094 ft 519 kts 114°
2026-05-05 13:21 -37.10391 158.58682 39094 ft 519 kts 114°
2026-05-05 13:22 -37.13369 158.66959 39089 ft 519 kts 114°
2026-05-05 13:22 -37.16317 158.75175 39088 ft 519 kts 114°
2026-05-05 13:23 -37.19281 158.83456 39086 ft 519 kts 113°
2026-05-05 13:23 -37.22235 158.91733 39079 ft 518 kts 113°
2026-05-05 13:24 -37.25158 158.99945 39078 ft 518 kts 113°
2026-05-05 13:24 -37.28100 159.08235 39078 ft 518 kts 113°
2026-05-05 13:25 -37.31013 159.16465 39072 ft 518 kts 113°
2026-05-05 13:25 -37.33943 159.24764 39071 ft 517 kts 112°
2026-05-05 13:26 -37.36838 159.32986 39070 ft 517 kts 112°
2026-05-05 13:26 -37.39746 159.41271 39067 ft 517 kts 112°
2026-05-05 13:27 -37.42632 159.49515 39067 ft 517 kts 112°
2026-05-05 13:27 -37.45527 159.57804 39061 ft 516 kts 112°
2026-05-05 13:28 -37.48395 159.66041 39063 ft 515 kts 112°
2026-05-05 13:28 -37.51275 159.74339 39063 ft 515 kts 112°
2026-05-05 13:29 -37.54129 159.82581 39060 ft 515 kts 112°
2026-05-05 13:29 -37.56990 159.90866 39063 ft 514 kts 111°
2026-05-05 13:30 -37.59839 159.99140 39064 ft 514 kts 111°
2026-05-05 13:30 -37.62667 160.07376 39061 ft 513 kts 111°
2026-05-05 13:31 -37.65502 160.15656 39059 ft 514 kts 111°
2026-05-05 13:31 -37.68335 160.23954 39052 ft 514 kts 111°
2026-05-05 13:32 -37.71147 160.32211 39059 ft 513 kts 111°
2026-05-05 13:32 -37.73964 160.40508 39056 ft 513 kts 111°
2026-05-05 13:33 -37.76773 160.48807 39059 ft 513 kts 111°
2026-05-05 13:33 -37.79562 160.57068 39059 ft 513 kts 111°
2026-05-05 13:34 -37.82360 160.65378 39059 ft 513 kts 111°
2026-05-05 13:34 -37.85135 160.73643 39060 ft 513 kts 111°
2026-05-05 13:35 -37.87921 160.81967 39059 ft 513 kts 110°
2026-05-05 13:35 -37.90707 160.90314 39060 ft 513 kts 111°
2026-05-05 13:36 -37.93472 160.98622 39060 ft 515 kts 111°
2026-05-05 13:36 -37.96250 161.06993 39068 ft 515 kts 111°
2026-05-05 13:37 -37.99028 161.15385 39066 ft 515 kts 111°
2026-05-05 13:37 -38.01784 161.23739 39071 ft 515 kts 111°
2026-05-05 13:38 -38.04555 161.32165 39071 ft 518 kts 111°
2026-05-05 13:38 -38.07317 161.40585 39070 ft 519 kts 111°
2026-05-05 13:39 -38.10091 161.49063 39074 ft 518 kts 111°
2026-05-05 13:39 -38.12850 161.57524 39076 ft 518 kts 111°
2026-05-05 13:40 -38.15596 161.65971 39076 ft 523 kts 111°
2026-05-05 13:40 -38.17914 161.73119 39075 ft 524 kts 111°
2026-05-05 13:41 -38.21142 161.83105 39072 ft 524 kts 111°
2026-05-05 13:41 -38.23913 161.91702 39075 ft 524 kts 111°
2026-05-05 13:42 -38.26213 161.98860 39081 ft 524 kts 111°
2026-05-05 13:42 -38.29419 162.08867 39080 ft 525 kts 111°
2026-05-05 13:43 -38.31711 162.16041 39083 ft 525 kts 110°
2026-05-05 13:43 -38.34456 162.24662 39083 ft 525 kts 110°
2026-05-05 13:44 -38.37183 162.33253 39086 ft 525 kts 111°
2026-05-05 13:44 -38.39920 162.41896 39092 ft 525 kts 111°
2026-05-05 13:45 -38.42654 162.50561 39089 ft 525 kts 111°
2026-05-05 13:45 -38.45365 162.59177 39097 ft 525 kts 111°
2026-05-05 13:46 -38.48083 162.67843 39102 ft 524 kts 111°
2026-05-05 13:46 -38.50776 162.76456 39102 ft 524 kts 111°
2026-05-05 13:47 -38.53474 162.85111 39113 ft 525 kts 111°
2026-05-05 13:47 -38.56167 162.93778 39105 ft 529 kts 111°
2026-05-05 13:48 -38.58864 163.02543 39117 ft 528 kts 111°
2026-05-05 13:48 -38.61460 163.11330 39120 ft 527 kts 110°
2026-05-05 13:49 -38.64005 163.20069 39123 ft 527 kts 110°
2026-05-05 13:49 -38.66571 163.28881 39129 ft 527 kts 110°
2026-05-05 13:50 -38.69114 163.37618 39134 ft 526 kts 111°
2026-05-05 13:50 -38.71665 163.46401 39135 ft 525 kts 110°
2026-05-05 13:51 -38.74209 163.55185 39138 ft 525 kts 110°
2026-05-05 13:51 -38.76732 163.63929 39137 ft 525 kts 110°
2026-05-05 13:52 -38.79252 163.72691 39146 ft 527 kts 111°
2026-05-05 13:52 -38.81787 163.81536 39146 ft 528 kts 110°
2026-05-05 13:53 -38.84325 163.90418 39145 ft 528 kts 110°
2026-05-05 13:53 -38.86836 163.99240 39154 ft 529 kts 110°
2026-05-05 13:54 -38.89350 164.08102 39156 ft 527 kts 111°
2026-05-05 13:54 -38.91852 164.16949 39157 ft 525 kts 111°
2026-05-05 13:55 -38.94336 164.25762 39165 ft 525 kts 111°
2026-05-05 13:55 -38.96807 164.34557 39179 ft 525 kts 111°
2026-05-05 13:56 -38.99282 164.43397 39170 ft 524 kts 110°
2026-05-05 13:56 -39.01730 164.52172 39179 ft 523 kts 110°
2026-05-05 13:57 -39.04183 164.60994 39178 ft 523 kts 110°
2026-05-05 13:57 -39.06627 164.69813 39184 ft 523 kts 110°
2026-05-05 13:58 -39.09053 164.78598 39188 ft 521 kts 110°
2026-05-05 13:58 -39.11466 164.87367 39190 ft 520 kts 110°
2026-05-05 13:59 -39.15082 165.00559 39195 ft 520 kts 110°
2026-05-05 14:00 -39.18666 165.13705 39199 ft 515 kts 110°
2026-05-05 14:00 -39.21018 165.22371 39203 ft 510 kts 110°
2026-05-05 14:01 -39.23361 165.31030 39198 ft 509 kts 110°
2026-05-05 14:01 -39.25682 165.39633 39205 ft 509 kts 110°
2026-05-05 14:02 -39.27992 165.48228 39206 ft 509 kts 110°
2026-05-05 14:02 -39.30311 165.56889 39211 ft 509 kts 110°
2026-05-05 14:03 -39.32612 165.65507 39219 ft 510 kts 110°
2026-05-05 14:03 -39.34924 165.74199 39219 ft 510 kts 110°
2026-05-05 14:04 -39.37207 165.82813 39219 ft 507 kts 110°
2026-05-05 14:04 -39.39480 165.91419 39228 ft 503 kts 110°
2026-05-05 14:05 -39.41723 165.99940 39225 ft 501 kts 110°
2026-05-05 14:05 -39.43972 166.08511 39235 ft 501 kts 110°
2026-05-05 14:06 -39.46188 166.16985 39235 ft 500 kts 109°
2026-05-05 14:06 -39.48396 166.25458 39236 ft 497 kts 109°
2026-05-05 14:07 -39.50602 166.33953 39235 ft 497 kts 109°
2026-05-05 14:07 -39.52791 166.42413 39246 ft 497 kts 109°
2026-05-05 14:08 -39.54983 166.50909 39243 ft 497 kts 109°
2026-05-05 14:08 -39.57158 166.59374 39252 ft 491 kts 109°
2026-05-05 14:09 -39.59301 166.67739 39263 ft 489 kts 109°
2026-05-05 14:09 -39.61441 166.76124 39264 ft 489 kts 109°
2026-05-05 14:10 -39.63565 166.84474 39259 ft 489 kts 109°
2026-05-05 14:10 -39.65692 166.92865 39266 ft 489 kts 109°